GFSNGP_925_temp_057.txt.gz
Temp
22 23 24 23 23 23 23 23 20 21 21 23 23 22 23 24 25 25 23 22 21 20 19 20 20 17 14 16 17 17 16 15 12 12 12 12 12 11 10 10 9 9 8 7
20 22 22 22 23 23 24 24 23 23 22 24 24 23 23 24 23 24 24 23 22 22 21 20 18 15 14 13 12 12 12 11 12 11 10 10 10 9 8 7 7 6 6 6
18 21 21 18 21 22 22 23 24 22 22 23 24 24 22 23 24 23 23 23 22 21 20 20 17 15 14 14 13 13 11 11 10 9 9 9 8 7 6 6 6 5 5 5
14 16 17 21 22 23 23 24 24 24 24 24 24 24 23 23 23 22 22 21 19 18 17 17 16 16 14 13 12 12 11 10 9 9 8 8 7 7 6 6 6 5 5 5
16 17 19 21 23 23 22 21 24 23 23 23 24 25 24 23 22 20 19 17 16 16 16 16 15 15 13 13 12 11 10 9 9 9 8 7 6 6 6 6 6 6 6 5
12 15 17 19 20 22 23 19 24 24 23 23 22 20 19 20 19 17 16 17 16 16 15 15 15 14 13 11 11 10 10 9 9 8 7 7 7 6 6 6 6 6 5 5
12 13 15 20 22 23 20 18 23 23 24 24 21 18 19 18 17 16 16 16 17 15 14 14 14 13 12 11 11 11 10 9 9 8 7 7 7 6 6 5 5 5 3 3
12 12 14 18 20 21 19 20 21 22 23 24 19 18 18 17 17 16 15 15 16 14 14 15 14 13 11 11 11 10 9 8 7 7 7 6 6 6 5 5 5 4 2 0
14 13 16 17 17 17 15 16 21 21 22 19 19 18 17 16 15 15 14 14 15 14 14 14 14 13 10 9 9 8 7 6 6 6 6 6 6 5 5 5 3 3 1 -1
15 16 17 18 17 17 16 16 16 20 19 17 17 17 16 15 15 14 13 13 14 13 12 12 13 11 9 8 7 7 6 6 6 6 6 5 5 4 3 2 2 1 0 -1
16 17 16 19 18 17 17 16 17 17 20 18 17 17 15 14 13 13 13 14 13 12 12 11 11 9 8 8 7 6 6 6 6 5 4 3 2 2 2 0 1 0 -1 -2
13 15 16 18 18 17 16 17 16 17 17 19 17 15 15 13 13 12 12 12 11 11 9 8 8 8 8 8 7 6 4 4 4 3 2 1 0 -2 -2 -1 -2 -2 -3 -3
17 19 18 19 16 15 17 16 16 16 16 18 18 16 15 13 12 13 12 10 9 7 7 5 3 4 6 6 5 4 3 2 2 2 0 -0 -2 -3 -5 -5 -5 -5 -5 -5
13 15 16 13 14 14 14 14 14 15 14 16 17 16 13 13 11 10 9 7 6 3 1 1 1 0 1 3 3 1 0 0 -1 -1 -2 -2 -3 -3 -4 -5 -5 -6 -6 -6
11 12 13 13 13 12 12 12 12 11 11 10 11 11 11 9 8 7 6 3 2 1 -1 -1 -2 -3 -1 -1 -1 -1 -2 -3 -3 -4 -4 -4 -5 -5 -5 -5 -4 -5 -5 -7
10 11 11 11 12 11 11 11 9 6 5 5 2 1 1 -0 -1 -2 -1 -2 -3 -4 -4 -4 -4 -4 -2 -2 -3 -3 -4 -5 -5 -6 -6 -7 -6 -6 -6 -6 -6 -6 -6 -7
8 8 8 8 9 6 5 4 3 2 1 -0 -2 -2 -3 -4 -4 -5 -6 -6 -6 -6 -6 -6 -6 -4 -4 -4 -4 -6 -7 -7 -7 -7 -7 -7 -7 -7 -7 -7 -7 -7 -8 -8
5 5 5 4 4 3 1 0 -0 -1 -2 -3 -4 -4 -5 -5 -6 -6 -7 -7 -7 -7 -7 -7 -7 -7 -7 -7 -7 -7 -8 -8 -8 -8 -8 -8 -8 -8 -8 -8 -9 -9 -9 -10
1 1 1 1 0 -0 -1 -2 -3 -4 -4 -5 -5 -6 -6 -6 -6 -7 -7 -8 -8 -8 -9 -8 -8 -8 -9 -9 -8 -8 -9 -9 -9 -9 -9 -9 -9 -9 -9 -10 -10 -10 -10 -11
-1 -1 -2 -2 -2 -3 -3 -4 -4 -5 -5 -6 -6 -6 -7 -7 -8 -8 -8 -8 -8 -9 -9 -10 -10 -10 -10 -10 -10 -10 -10 -9 -9 -9 -10 -10 -10 -10 -10 -11 -11 -11 -12 -12
-3 -3 -3 -4 -4 -5 -5 -5 -5 -5 -6 -6 -6 -7 -7 -8 -8 -8 -8 -9 -9 -9 -10 -10 -10 -11 -11 -10 -10 -10 -10 -11 -11 -11 -11 -11 -11 -11 -12 -12 -12 -13 -13 -14
-4 -4 -4 -4 -4 -5 -5 -5 -6 -6 -6 -6 -6 -7 -7 -8 -8 -9 -9 -9 -9 -10 -10 -11 -11 -12 -11 -10 -11 -11 -11 -11 -12 -12 -12 -12 -12 -13 -13 -13 -13 -14 -14 -15
-4 -4 -5 -5 -5 -5 -6 -6 -6 -6 -6 -7 -7 -7 -7 -7 -8 -8 -8 -9 -9 -10 -11 -12 -12 -12 -11 -12 -12 -12 -12 -12 -13 -13 -13 -13 -14 -14 -14 -14 -15 -15 -15 -16
-4 -4 -5 -5 -5 -5 -5 -6 -6 -7 -7 -8 -7 -7 -8 -8 -9 -9 -9 -10 -10 -11 -12 -12 -12 -12 -12 -13 -13 -13 -13 -14 -14 -14 -14 -14 -15 -16 -16 -16 -16 -16 -16 -17
-6 -6 -5 -5 -5 -5 -6 -6 -7 -7 -8 -8 -9 -9 -9 -9 -10 -10 -11 -11 -12 -12 -12 -13 -13 -13 -13 -14 -14 -14 -15 -15 -15 -15 -16 -16 -16 -17 -17 -17 -17 -18 -18 -18
-7 -7 -8 -9 -9 -8 -8 -8 -9 -8 -8 -9 -9 -10 -10 -10 -10 -11 -11 -11 -12 -12 -13 -13 -14 -14 -14 -15 -15 -15 -16 -16 -16 -17 -17 -17 -18 -18 -18 -19 -19 -19 -20 -20
-9 -9 -9 -9 -10 -10 -11 -10 -10 -11 -10 -10 -11 -11 -11 -12 -12 -12 -12 -13 -13 -14 -14 -14 -15 -15 -16 -16 -16 -17 -17 -17 -17 -18 -18 -19 -19 -19 -20 -20 -20 -21 -21 -21

GFSNGP_925_temp_060.txt.gz
Temp
20 21 22 21 22 22 22 20 19 20 20 21 21 22 21 21 21 22 21 19 19 19 17 16 17 18 20 19 18 17 16 16 15 15 14 13 13 13 13 12 12 12 11 9
18 20 21 22 21 22 23 21 20 21 20 22 22 21 21 21 22 22 21 21 20 19 18 16 15 15 15 14 15 16 15 13 13 12 12 12 12 12 11 10 10 9 8 8
14 19 20 18 20 21 21 21 21 19 21 22 22 23 22 21 22 21 21 20 19 19 18 17 15 15 14 13 13 13 12 11 10 10 10 10 10 9 9 8 8 7 6 6
12 13 16 20 21 21 20 21 22 21 21 22 22 24 21 21 23 21 20 19 19 19 18 17 14 13 13 12 11 11 10 10 9 9 9 8 7 7 6 7 6 6 6 6
12 13 17 18 19 19 20 21 22 22 22 22 22 22 23 21 20 20 18 17 16 18 17 14 13 12 12 11 11 10 9 9 9 9 7 6 6 6 6 6 5 5 5 5
11 12 13 17 19 21 22 18 21 21 21 22 22 18 18 20 20 17 15 14 13 14 14 13 13 12 11 10 10 9 9 8 8 7 6 6 6 6 6 6 5 5 5 4
11 12 12 16 17 21 19 19 21 22 22 22 20 17 19 17 18 16 15 13 14 14 13 12 12 11 10 10 9 9 9 8 7 7 7 7 6 6 6 5 5 4 3 2
11 12 12 16 17 17 15 15 16 16 17 19 20 19 16 16 15 14 13 12 13 12 11 12 12 12 10 9 9 9 8 7 7 7 6 6 6 6 5 4 4 2 1 -1
13 13 15 15 16 16 15 15 16 15 15 15 17 18 16 15 14 14 13 12 13 11 11 11 12 11 9 8 8 8 7 6 6 6 6 6 6 4 3 3 2 -1 -1 -3
13 16 16 17 16 16 15 16 17 16 16 16 15 16 16 14 13 12 12 11 12 11 10 9 10 10 9 8 8 7 6 5 5 5 5 5 4 4 4 2 0 -2 -3 -4
14 16 17 17 17 17 17 17 17 17 16 16 15 15 16 14 12 12 11 11 11 10 9 8 8 7 7 7 8 6 5 5 4 3 3 2 2 1 1 0 1 -0 -2 -3
14 15 15 16 18 18 17 18 17 17 17 16 16 15 15 13 12 12 10 10 9 7 7 6 6 6 6 6 7 6 3 2 2 1 -0 -1 -1 -3 -2 -1 -1 -2 -3 -3
10 11 13 14 12 13 15 14 15 14 15 15 16 15 13 12 11 10 9 8 7 3 2 3 3 4 5 6 6 3 1 -1 -1 -1 -2 -2 -3 -4 -5 -5 -4 -5 -5 -5
9 11 12 11 12 11 12 12 12 12 10 10 12 13 11 9 8 7 5 3 2 1 -0 -1 -1 -1 -0 2 2 -0 -1 -1 -1 -2 -3 -3 -3 -4 -4 -5 -5 -6 -6 -7
7 9 9 10 11 10 10 10 8 5 4 3 4 8 8 6 3 2 1 -0 -1 -2 -3 -3 -4 -4 -3 -2 -2 -2 -3 -4 -4 -4 -4 -4 -4 -5 -5 -6 -6 -6 -7 -7
8 7 8 7 6 5 6 5 3 2 1 0 -1 -1 -2 -2 -2 -3 -3 -3 -3 -4 -5 -5 -5 -5 -4 -3 -3 -4 -4 -4 -4 -5 -6 -6 -6 -6 -6 -7 -7 -7 -7 -8
6 5 5 6 4 2 1 1 0 -1 -1 -2 -3 -3 -4 -4 -5 -6 -6 -6 -6 -6 -6 -6 -6 -4 -4 -4 -4 -5 -6 -6 -6 -7 -7 -7 -8 -8 -8 -8 -8 -8 -8 -9
3 2 3 3 2 1 -1 -1 -2 -3 -4 -4 -5 -5 -5 -5 -6 -7 -7 -8 -8 -8 -8 -7 -7 -7 -6 -6 -6 -7 -7 -7 -8 -8 -8 -9 -9 -9 -9 -9 -9 -10 -10 -10
-0 -1 -1 -1 -2 -2 -3 -4 -4 -5 -5 -5 -6 -6 -7 -7 -7 -8 -8 -8 -9 -9 -9 -8 -8 -8 -8 -8 -8 -8 -8 -9 -9 -9 -10 -10 -10 -10 -10 -11 -11 -11 -11 -12
-3 -3 -4 -4 -4 -4 -4 -5 -5 -6 -6 -7 -7 -7 -8 -8 -8 -8 -9 -9 -9 -10 -10 -10 -10 -10 -10 -10 -9 -10 -10 -10 -10 -10 -11 -11 -11 -11 -11 -11 -12 -12 -13 -13
-4 -4 -5 -5 -5 -5 -6 -6 -6 -6 -7 -7 -7 -8 -8 -8 -8 -9 -9 -9 -10 -10 -10 -10 -10 -10 -10 -10 -10 -11 -11 -11 -12 -12 -12 -12 -12 -12 -13 -13 -13 -14 -14 -14
-5 -5 -5 -5 -5 -6 -6 -6 -6 -6 -7 -7 -8 -8 -8 -9 -9 -9 -9 -10 -11 -11 -11 -11 -11 -11 -11 -11 -12 -12 -12 -12 -13 -13 -13 -13 -14 -14 -14 -15 -15 -15 -15 -16
-5 -5 -5 -6 -6 -6 -7 -7 -7 -7 -7 -8 -8 -8 -8 -9 -9 -9 -10 -11 -12 -12 -12 -12 -12 -12 -12 -13 -13 -13 -13 -14 -14 -14 -15 -15 -15 -16 -16 -16 -16 -16 -16 -17
-5 -5 -5 -6 -6 -6 -6 -7 -8 -8 -8 -8 -9 -9 -9 -10 -11 -11 -11 -12 -12 -12 -13 -13 -13 -13 -13 -14 -14 -14 -15 -15 -15 -15 -16 -16 -16 -17 -17 -17 -18 -18 -18 -18
-8 -8 -8 -7 -7 -8 -7 -8 -8 -9 -9 -10 -10 -10 -10 -11 -11 -12 -12 -12 -13 -13 -14 -14 -14 -14 -15 -15 -15 -16 -16 -16 -16 -17 -17 -17 -18 -18 -18 -19 -19 -20 -20 -20
-9 -9 -10 -10 -10 -10 -10 -9 -9 -10 -10 -11 -12 -12 -12 -12 -12 -12 -13 -13 -14 -14 -14 -15 -15 -15 -16 -16 -16 -17 -17 -17 -18 -18 -18 -19 -19 -19 -20 -20 -20 -21 -21 -21
-11 -10 -10 -11 -12 -12 -12 -12 -12 -12 -13 -13 -14 -13 -13 -13 -13 -14 -14 -14 -15 -15 -16 -16 -17 -17 -17 -17 -18 -18 -18 -18 -19 -19 -19 -20 -20 -21 -21 -21 -21 -22 -22 -23

GFSNGP_925_temp_063.txt.gz
Temp
13 15 17 18 20 20 20 20 18 20 19 21 20 20 20 20 20 21 20 18 18 17 16 17 18 18 18 18 17 16 15 14 14 15 14 14 13 13 13 13 13 13 13 12
13 15 15 17 19 20 19 20 19 20 18 20 20 20 20 20 20 20 20 20 19 17 17 16 17 17 18 18 17 16 15 15 15 15 14 13 13 12 13 12 12 12 12 11
14 13 14 15 17 19 20 22 19 18 19 21 20 20 20 20 20 20 20 19 20 17 18 17 17 18 16 17 16 15 15 15 15 13 12 12 12 12 11 11 10 9 9 9
10 12 13 16 16 18 20 21 20 20 20 20 20 20 21 19 19 19 20 19 19 19 16 18 16 15 14 13 14 14 14 13 12 11 10 10 10 9 8 8 8 8 7 7
11 12 14 15 17 18 18 19 20 20 20 21 21 20 19 19 18 18 18 19 18 19 18 15 14 13 12 12 12 12 11 11 11 10 10 9 8 7 7 7 7 6 6 5
11 12 12 16 17 19 18 16 18 20 21 22 21 17 17 18 18 17 16 15 14 15 15 14 12 12 11 11 11 11 10 10 10 9 8 7 7 6 6 6 5 4 4 4
11 10 11 14 13 15 14 15 16 15 16 18 19 20 19 18 18 16 14 13 13 13 13 12 12 12 10 10 10 9 9 9 8 7 7 7 6 5 4 4 4 3 2 2
9 10 11 14 13 12 13 14 15 15 15 14 15 15 16 16 16 14 13 11 12 11 10 10 11 11 9 8 8 9 8 7 7 7 6 5 4 4 4 4 2 1 1 -1
11 12 14 13 13 12 12 13 15 14 16 15 15 15 15 14 13 13 13 10 11 10 9 10 10 10 8 7 8 7 6 5 5 5 4 5 5 4 3 3 1 -2 -2 -3
12 14 14 15 14 15 14 14 14 14 14 16 16 14 14 14 14 12 10 9 10 10 9 8 9 9 8 7 8 7 5 4 4 4 3 3 3 3 3 0 -1 -3 -4 -5
14 14 15 15 15 16 15 15 16 15 15 16 15 15 15 14 13 12 10 10 10 9 8 6 8 8 7 7 7 5 3 3 2 2 3 1 0 -0 0 -0 1 -1 -3 -3
9 10 9 13 14 13 15 15 15 15 15 15 16 15 15 13 12 10 9 8 7 6 6 5 5 5 5 5 6 4 1 1 0 -0 -1 -2 -2 -3 -2 -1 -0 -1 -2 -2
9 8 8 9 11 11 12 11 11 10 9 9 10 12 15 10 9 7 6 5 4 3 2 2 2 3 4 4 4 3 1 -0 -1 -2 -3 -4 -4 -5 -6 -6 -4 -3 -3 -4
8 7 10 9 9 8 9 8 7 5 4 3 5 8 8 7 5 3 2 1 -0 -1 -1 -1 -1 -2 0 1 2 -0 -2 -3 -3 -4 -4 -4 -4 -5 -5 -5 -6 -7 -6 -6
6 7 7 7 6 5 5 5 3 2 0 -0 -1 1 1 0 -1 -1 -2 -3 -3 -4 -4 -4 -4 -4 -4 -3 -4 -4 -4 -4 -4 -4 -4 -4 -4 -4 -5 -5 -5 -6 -7 -7
5 7 6 5 4 3 2 2 0 -1 -1 -2 -3 -3 -4 -4 -4 -5 -5 -4 -4 -4 -5 -5 -5 -5 -4 -3 -3 -4 -4 -4 -4 -5 -5 -5 -6 -6 -6 -6 -7 -6 -7 -8
4 4 4 5 2 1 -0 -1 -1 -2 -2 -3 -4 -4 -5 -5 -6 -6 -7 -7 -7 -7 -7 -7 -6 -5 -4 -4 -5 -5 -6 -6 -6 -6 -7 -7 -7 -8 -8 -8 -8 -8 -9 -9
0 0 0 0 0 -1 -2 -3 -3 -3 -4 -5 -5 -6 -6 -6 -7 -7 -8 -8 -8 -8 -8 -8 -7 -6 -6 -6 -6 -7 -7 -8 -8 -8 -9 -9 -9 -9 -9 -9 -10 -10 -10 -11
-2 -2 -2 -3 -3 -3 -4 -4 -5 -6 -6 -6 -7 -7 -8 -8 -8 -8 -9 -9 -9 -9 -9 -9 -8 -8 -8 -8 -8 -8 -9 -9 -10 -10 -10 -10 -10 -10 -11 -11 -11 -11 -12 -12
-4 -4 -4 -5 -5 -5 -5 -6 -6 -7 -7 -7 -8 -8 -8 -9 -9 -10 -10 -10 -10 -10 -10 -10 -10 -10 -10 -10 -10 -10 -10 -11 -11 -11 -11 -11 -12 -12 -12 -12 -13 -13 -13 -14
-5 -5 -5 -6 -6 -6 -6 -7 -7 -7 -8 -8 -8 -8 -9 -9 -9 -10 -10 -11 -11 -11 -10 -10 -11 -11 -11 -11 -11 -12 -12 -12 -12 -13 -13 -13 -13 -14 -14 -14 -14 -15 -15 -15
-5 -5 -6 -6 -6 -7 -7 -7 -7 -7 -8 -8 -8 -9 -9 -10 -11 -11 -12 -12 -12 -11 -12 -12 -12 -12 -12 -12 -13 -13 -13 -13 -14 -14 -14 -15 -15 -15 -16 -16 -16 -16 -16 -16
-5 -6 -6 -6 -7 -7 -8 -8 -8 -8 -9 -9 -9 -10 -10 -10 -10 -11 -12 -13 -12 -12 -13 -13 -13 -13 -13 -13 -14 -14 -14 -15 -15 -15 -16 -16 -16 -16 -17 -17 -17 -17 -18 -18
-7 -7 -6 -7 -7 -7 -8 -8 -9 -9 -10 -10 -10 -10 -11 -12 -12 -13 -13 -13 -13 -13 -14 -14 -14 -14 -14 -15 -15 -15 -16 -16 -16 -17 -17 -17 -18 -18 -18 -19 -19 -19 -20 -20
-8 -9 -8 -8 -8 -8 -9 -9 -10 -10 -11 -12 -12 -12 -12 -12 -13 -13 -13 -14 -14 -14 -15 -15 -15 -15 -16 -16 -16 -17 -17 -17 -18 -18 -18 -18 -19 -19 -20 -20 -21 -21 -21 -21
-10 -10 -11 -11 -11 -11 -11 -11 -12 -13 -13 -13 -14 -13 -13 -13 -13 -14 -14 -14 -15 -15 -16 -16 -16 -17 -17 -17 -17 -18 -18 -18 -19 -19 -19 -20 -20 -20 -21 -21 -21 -22 -22 -22
-12 -12 -12 -13 -13 -13 -13 -13 -14 -15 -14 -13 -14 -14 -14 -15 -15 -15 -15 -16 -16 -16 -17 -17 -18 -18 -18 -18 -19 -19 -19 -19 -20 -20 -20 -21 -21 -21 -22 -22 -22 -23 -23 -23

GFSNGP_925_temp_066.txt.gz
Temp
14 14 14 14 14 15 17 18 17 19 18 19 19 20 20 20 20 19 18 18 17 15 16 16 16 16 16 15 14 14 13 13 13 13 13 13 13 13 13 13 13 12 12 12
11 14 15 14 15 15 16 17 18 17 18 19 19 19 18 18 18 18 19 19 18 16 16 16 16 16 16 16 15 14 14 13 13 13 13 13 13 13 13 13 12 12 12 12
12 13 14 13 14 14 15 16 17 17 18 19 19 19 18 19 18 19 19 19 18 18 17 16 16 16 16 16 15 14 14 14 13 13 13 13 13 13 13 12 12 12 12 11
9 10 12 15 16 16 16 16 17 17 18 18 19 19 19 18 18 18 17 18 19 17 16 18 18 16 17 16 15 14 14 14 13 13 13 13 12 12 11 11 10 9 9 9
9 10 12 14 16 17 16 16 17 16 17 18 19 18 17 18 17 18 18 18 18 19 18 18 17 17 15 14 14 14 13 13 13 12 12 11 10 10 9 8 8 7 7 7
10 10 9 13 15 14 16 13 13 13 15 14 15 17 20 19 18 17 15 14 14 16 16 16 15 14 13 13 13 13 12 12 11 11 11 10 9 8 7 7 6 5 5 5
11 11 10 12 13 14 14 12 12 13 13 14 14 14 14 14 16 16 15 14 13 13 12 13 11 12 12 12 12 11 11 11 10 10 9 8 7 6 5 4 4 3 2 2
9 10 10 13 14 16 14 12 13 14 14 13 14 13 14 13 13 14 14 12 11 11 10 10 11 11 11 10 9 9 9 9 8 8 7 6 6 4 3 2 1 -0 0 -1
10 10 12 12 14 14 13 14 14 14 15 15 12 13 12 13 12 11 11 10 9 9 8 9 10 10 8 7 9 8 8 6 5 5 5 4 3 2 1 0 -1 -2 -2 -4
10 13 12 12 13 13 13 13 15 14 15 14 12 13 13 13 12 11 10 9 9 8 7 7 8 9 7 8 8 7 5 4 4 3 3 2 2 2 1 -0 -1 -2 -3 -4
11 13 11 14 12 10 11 13 14 14 15 15 13 13 12 13 12 10 9 8 8 7 6 5 6 6 6 6 6 4 3 2 2 1 1 1 0 1 1 1 2 1 -1 -2
12 8 8 8 9 9 10 10 10 11 13 10 8 8 10 11 10 9 7 6 5 5 4 4 4 4 5 5 6 4 1 1 1 1 0 -0 -1 -2 -2 -1 -2 -2 -3 -3
8 8 6 7 8 6 8 7 6 5 4 5 5 5 7 5 4 3 3 2 1 0 -0 -0 -1 0 2 3 3 2 -0 -1 -2 -2 -3 -4 -4 -5 -6 -6 -4 -4 -4 -4
7 6 7 7 6 5 5 5 4 2 1 -0 1 1 0 -0 -1 -2 -2 -2 -2 -2 -3 -3 -3 -3 -2 -0 0 -2 -3 -4 -4 -4 -5 -5 -5 -5 -5 -6 -6 -7 -6 -7
5 5 6 6 4 3 3 2 1 -1 -1 -2 -3 -3 -3 -3 -3 -3 -3 -4 -4 -4 -4 -4 -4 -4 -4 -3 -3 -4 -4 -4 -4 -4 -4 -4 -4 -5 -5 -6 -6 -7 -7 -7
2 3 5 4 2 1 1 0 -1 -1 -2 -3 -3 -4 -5 -5 -5 -6 -6 -6 -5 -5 -6 -6 -6 -5 -5 -4 -5 -5 -5 -5 -5 -5 -5 -5 -5 -6 -6 -6 -6 -7 -8 -8
2 3 2 2 1 -1 -2 -2 -2 -3 -3 -4 -4 -5 -6 -6 -6 -7 -7 -8 -8 -8 -8 -8 -7 -6 -6 -6 -6 -7 -7 -7 -7 -7 -7 -7 -7 -8 -8 -8 -8 -9 -9 -10
-1 -1 -2 -1 -2 -2 -3 -3 -4 -4 -5 -6 -7 -7 -7 -8 -8 -8 -9 -9 -9 -9 -9 -8 -8 -7 -7 -7 -7 -8 -8 -8 -9 -9 -9 -9 -9 -9 -9 -10 -10 -10 -11 -11
-3 -3 -3 -4 -4 -4 -5 -5 -6 -6 -7 -8 -8 -8 -9 -9 -9 -10 -10 -10 -9 -9 -10 -9 -9 -9 -9 -8 -9 -9 -9 -10 -10 -10 -10 -11 -11 -11 -11 -11 -12 -12 -12 -13
-5 -5 -5 -6 -6 -6 -6 -7 -7 -8 -8 -8 -9 -9 -10 -10 -10 -10 -11 -11 -11 -10 -10 -10 -10 -10 -10 -10 -10 -10 -11 -11 -12 -12 -12 -12 -13 -13 -13 -13 -14 -14 -14 -14
-6 -6 -6 -6 -7 -7 -7 -8 -8 -8 -9 -9 -10 -10 -11 -11 -11 -11 -11 -11 -12 -11 -11 -11 -12 -12 -12 -12 -12 -12 -12 -13 -13 -13 -14 -14 -14 -15 -15 -15 -15 -15 -16 -16
-6 -6 -7 -7 -7 -8 -8 -8 -9 -9 -9 -9 -10 -10 -11 -11 -12 -12 -12 -12 -13 -13 -13 -13 -13 -13 -13 -13 -13 -13 -14 -14 -14 -15 -15 -16 -16 -16 -17 -17 -17 -17 -17 -17
-6 -7 -7 -7 -8 -8 -9 -9 -10 -10 -10 -10 -11 -11 -11 -12 -12 -12 -12 -13 -14 -14 -14 -14 -14 -14 -14 -14 -15 -15 -15 -16 -16 -16 -17 -17 -17 -18 -18 -18 -19 -19 -19 -19
-7 -7 -7 -8 -8 -9 -9 -10 -10 -10 -11 -11 -12 -12 -12 -13 -14 -14 -14 -14 -14 -14 -15 -15 -15 -15 -16 -16 -16 -16 -17 -17 -17 -18 -18 -18 -19 -19 -19 -20 -20 -20 -20 -21
-9 -9 -9 -9 -9 -9 -10 -11 -12 -12 -12 -13 -13 -14 -14 -14 -14 -15 -15 -15 -15 -15 -16 -16 -16 -17 -17 -17 -17 -18 -18 -18 -19 -19 -19 -19 -20 -20 -21 -21 -21 -21 -22 -22
-11 -11 -12 -12 -12 -12 -12 -13 -14 -14 -14 -15 -15 -14 -14 -14 -14 -15 -15 -16 -16 -17 -17 -17 -18 -18 -18 -18 -18 -19 -19 -19 -19 -20 -20 -20 -21 -21 -22 -22 -22 -22 -22 -22
-13 -13 -13 -13 -14 -13 -13 -14 -14 -15 -14 -14 -16 -16 -15 -15 -16 -16 -16 -17 -17 -18 -18 -18 -18 -19 -19 -19 -19 -20 -20 -20 -20 -21 -21 -21 -22 -22 -22 -22 -22 -22 -22 -23

GFSNGP_925_temp_069.txt.gz
Temp
16 15 14 15 15 16 17 17 16 18 19 20 21 22 23 23 22 21 21 21 20 20 19 19 18 17 16 15 14 13 12 12 13 12 12 12 12 12 12 12 12 12 12 12
13 14 15 14 16 16 17 17 17 18 18 20 21 21 20 20 21 21 21 21 22 20 19 19 18 17 16 16 14 13 13 13 13 13 12 12 12 12 12 12 12 13 12 12
13 13 14 14 14 16 18 17 17 17 18 18 18 19 20 21 21 20 21 21 21 21 21 19 18 17 17 16 15 14 14 14 13 13 13 12 12 12 12 12 12 12 12 12
12 12 13 17 16 17 17 18 18 18 17 17 17 17 19 21 21 21 20 21 21 21 20 20 19 18 17 17 15 14 14 14 14 13 13 13 13 12 12 12 12 12 12 12
12 12 14 16 17 16 16 17 15 14 16 16 16 16 19 18 18 19 20 20 21 20 20 19 19 18 16 16 16 15 15 14 14 14 13 13 13 12 12 12 11 11 10 10
10 12 12 15 15 15 17 15 15 15 16 15 16 15 17 17 16 15 17 18 18 18 17 16 16 15 15 15 15 16 15 15 14 13 13 12 11 11 11 10 9 8 7 6
10 11 13 14 15 15 15 16 15 15 16 15 15 16 16 15 15 15 14 16 14 14 14 15 13 13 15 14 14 13 12 11 11 11 11 11 10 9 8 7 6 4 4 3
11 11 12 14 14 15 16 16 15 16 16 15 15 15 14 15 16 15 14 13 12 12 10 10 11 13 13 11 10 11 11 10 10 10 9 8 8 6 5 4 2 0 0 -0
12 13 13 13 13 14 14 14 14 15 16 16 15 15 15 15 15 14 13 12 10 10 9 9 10 10 8 8 9 9 8 7 7 7 6 6 5 3 1 1 -1 -2 -3 -3
12 14 15 15 14 12 11 11 12 13 14 15 15 14 14 13 13 13 12 10 10 9 8 7 7 8 8 8 7 7 5 4 4 3 3 3 2 2 1 -0 -1 -2 -3 -4
13 13 12 14 10 9 10 10 10 10 10 11 10 11 10 11 9 10 9 8 7 6 5 5 5 5 6 6 7 5 3 2 2 1 1 0 -0 -0 0 -0 1 -0 -2 -3
12 9 8 9 10 8 8 8 7 6 6 6 5 5 8 5 4 4 4 4 4 3 2 1 0 0 2 4 4 3 1 0 -0 -1 -1 -2 -3 -3 -2 -1 -1 -1 -2 -1
8 8 8 8 8 6 6 6 5 4 3 2 2 2 2 1 0 0 -0 -1 -1 -1 -0 -1 -2 -2 -1 0 1 1 -1 -2 -2 -2 -3 -4 -4 -4 -5 -5 -5 -4 -4 -5
6 6 8 7 6 5 4 4 2 1 -0 -1 -1 -1 -1 -1 -1 -2 -2 -3 -3 -3 -3 -3 -3 -3 -3 -2 -2 -3 -4 -4 -4 -4 -5 -5 -5 -5 -5 -6 -6 -6 -6 -7
3 4 3 5 4 3 2 2 1 -0 -1 -2 -3 -3 -3 -3 -3 -4 -4 -4 -4 -5 -5 -5 -5 -5 -4 -3 -3 -4 -4 -4 -4 -4 -4 -5 -5 -5 -6 -6 -6 -6 -7 -7
2 3 2 3 1 -0 -0 -0 -1 -2 -2 -3 -3 -4 -5 -5 -6 -6 -7 -6 -6 -6 -7 -7 -7 -6 -6 -5 -6 -6 -6 -6 -5 -6 -6 -6 -6 -5 -5 -6 -6 -7 -8 -9
1 2 0 1 -1 -2 -2 -3 -3 -4 -4 -5 -5 -6 -6 -7 -7 -8 -8 -8 -9 -9 -8 -8 -8 -7 -7 -6 -7 -7 -7 -7 -7 -7 -7 -7 -7 -7 -7 -7 -8 -8 -9 -10
-2 -2 -2 -2 -2 -3 -4 -4 -5 -6 -6 -7 -8 -8 -8 -8 -8 -9 -9 -9 -9 -9 -10 -9 -9 -8 -8 -8 -8 -8 -8 -9 -9 -9 -9 -9 -9 -9 -9 -9 -9 -10 -11 -12
-3 -4 -4 -4 -5 -5 -6 -6 -7 -8 -8 -9 -9 -10 -10 -10 -10 -10 -10 -10 -10 -10 -11 -10 -10 -9 -10 -9 -9 -10 -10 -10 -10 -11 -11 -11 -11 -11 -11 -12 -12 -12 -13 -13
-5 -5 -6 -6 -7 -7 -7 -8 -8 -9 -9 -9 -10 -10 -10 -10 -11 -11 -11 -11 -12 -12 -12 -11 -11 -11 -11 -11 -11 -11 -11 -12 -12 -13 -13 -13 -13 -13 -13 -14 -14 -14 -14 -15
-6 -7 -7 -7 -7 -8 -8 -9 -9 -10 -10 -10 -11 -11 -11 -12 -11 -11 -11 -12 -13 -13 -12 -12 -13 -13 -13 -13 -13 -13 -13 -14 -14 -14 -15 -15 -15 -15 -16 -16 -16 -17 -17 -17
-7 -7 -8 -8 -8 -9 -9 -9 -10 -10 -10 -10 -11 -11 -11 -11 -12 -13 -14 -13 -14 -14 -14 -14 -14 -13 -13 -14 -14 -15 -15 -15 -16 -16 -16 -17 -17 -17 -18 -18 -18 -19 -19 -19
-7 -7 -8 -8 -9 -9 -10 -10 -10 -11 -11 -12 -12 -12 -12 -13 -13 -13 -14 -15 -15 -15 -16 -15 -15 -15 -15 -15 -15 -16 -16 -17 -17 -18 -18 -18 -19 -19 -19 -20 -20 -20 -20 -21
-7 -8 -8 -9 -9 -9 -10 -10 -11 -11 -12 -12 -13 -13 -13 -14 -15 -15 -16 -15 -15 -15 -16 -16 -16 -16 -16 -17 -17 -17 -18 -18 -18 -18 -19 -19 -19 -20 -20 -21 -21 -21 -21 -21
-9 -9 -9 -9 -9 -10 -11 -11 -12 -12 -13 -14 -14 -15 -15 -15 -15 -16 -16 -16 -16 -16 -17 -17 -17 -17 -18 -18 -18 -18 -19 -19 -19 -19 -20 -20 -20 -21 -21 -21 -21 -22 -22 -22
-11 -11 -12 -12 -12 -12 -12 -12 -13 -13 -14 -15 -16 -16 -15 -15 -16 -16 -16 -17 -17 -17 -18 -18 -18 -18 -19 -19 -19 -19 -19 -20 -20 -20 -20 -21 -21 -21 -22 -22 -22 -22 -22 -22
-13 -12 -12 -13 -14 -14 -14 -14 -15 -16 -16 -16 -17 -17 -16 -16 -17 -17 -17 -18 -18 -18 -19 -19 -19 -19 -19 -20 -20 -20 -20 -20 -21 -21 -21 -21 -22 -22 -22 -22 -22 -22 -23 -23

GFSNGP_925_temp_072.txt.gz
Temp
17 18 18 18 18 19 19 20 19 21 21 23 24 24 24 25 24 24 26 27 27 27 27 26 24 22 21 20 18 17 17 16 16 15 15 15 14 14 14 14 14 15 15 14
17 17 18 18 19 19 19 20 21 21 21 24 24 24 24 24 24 24 24 25 27 27 26 26 25 23 22 20 19 18 17 17 17 16 15 15 15 15 14 14 14 15 15 15
15 16 17 16 18 19 20 21 21 20 22 22 22 22 22 22 22 23 24 25 25 26 26 26 25 23 23 21 20 18 18 17 17 17 16 16 15 15 15 15 15 14 14 15
15 14 14 19 19 19 19 20 22 21 21 20 20 20 21 21 19 19 20 21 23 24 25 25 24 23 23 23 21 19 18 18 18 17 17 16 16 15 15 15 15 14 14 14
14 15 17 18 19 19 19 20 19 20 20 20 20 20 22 21 20 19 19 19 20 21 22 22 22 23 22 21 22 20 19 19 18 18 17 16 16 16 15 14 13 13 12 12
13 14 14 18 18 18 19 18 19 18 19 19 19 19 20 20 19 19 20 19 19 19 19 20 21 20 21 21 21 21 20 20 19 18 17 17 16 15 13 13 12 11 11 10
13 14 16 18 19 18 17 16 18 18 18 18 18 19 19 19 19 19 19 19 17 17 17 17 16 17 18 20 20 20 20 19 18 17 17 15 12 12 11 10 9 7 6 5
13 12 12 18 17 16 16 17 17 18 18 17 18 18 19 18 18 19 18 18 16 15 12 11 12 15 18 18 13 13 12 11 11 11 11 11 11 8 7 7 5 3 1 -0
15 16 17 17 17 17 15 15 16 15 16 16 17 18 18 18 17 17 16 15 14 11 8 7 7 11 12 9 9 9 9 8 8 8 7 7 6 5 4 3 1 -1 -2 -3
15 17 17 18 17 15 14 14 14 14 14 14 13 16 16 15 14 14 13 11 9 9 6 4 4 4 6 6 7 6 5 5 4 4 4 3 3 3 1 0 -1 -2 -3 -4
15 16 17 17 15 13 12 13 12 12 11 11 10 12 11 12 9 8 7 6 6 5 4 3 2 1 2 3 5 4 3 2 1 1 -0 -1 -1 -0 -0 -0 -0 -2 -3 -4
14 14 12 13 13 11 11 11 10 9 9 9 7 8 8 7 4 5 3 1 1 0 1 1 0 0 1 2 2 1 1 0 -1 -1 -2 -2 -3 -4 -2 -1 -1 -2 -3 -2
11 9 9 10 11 9 9 9 8 7 6 5 5 4 5 3 0 -0 -0 -1 -1 -2 -2 -2 -2 -2 -1 1 1 -1 -1 -1 -2 -2 -3 -3 -3 -4 -5 -5 -5 -4 -4 -5
7 7 9 8 6 5 5 7 6 5 4 2 1 0 -1 -0 -2 -3 -3 -3 -3 -4 -4 -3 -3 -4 -3 -1 -1 -2 -2 -3 -4 -4 -4 -5 -5 -5 -5 -5 -5 -6 -6 -6
4 5 4 4 3 2 2 2 2 1 0 -1 -1 -3 -3 -3 -5 -5 -5 -5 -5 -6 -6 -6 -5 -6 -5 -4 -4 -4 -4 -4 -4 -5 -5 -5 -5 -5 -5 -5 -6 -6 -6 -7
3 5 4 2 1 -0 -1 -1 -1 -2 -2 -3 -4 -5 -6 -6 -6 -7 -7 -7 -7 -7 -7 -7 -7 -7 -6 -6 -6 -6 -6 -5 -5 -5 -5 -5 -5 -5 -5 -5 -6 -6 -7 -7
1 4 2 2 1 -1 -2 -2 -3 -4 -5 -5 -6 -6 -7 -7 -7 -8 -8 -9 -9 -9 -9 -8 -8 -7 -7 -6 -6 -6 -6 -6 -6 -6 -6 -6 -6 -6 -6 -6 -7 -8 -9 -9
-1 -1 -1 -1 -1 -2 -3 -4 -5 -6 -7 -8 -8 -8 -8 -8 -8 -8 -8 -9 -9 -9 -9 -9 -9 -8 -8 -8 -7 -7 -7 -7 -7 -7 -7 -7 -8 -8 -7 -8 -9 -9 -10 -11
-2 -2 -3 -3 -3 -4 -5 -6 -7 -8 -8 -8 -9 -9 -9 -9 -9 -9 -9 -9 -9 -9 -10 -10 -10 -10 -9 -9 -8 -8 -8 -8 -8 -9 -9 -9 -9 -10 -10 -10 -10 -10 -11 -11
-4 -4 -5 -5 -6 -6 -7 -8 -8 -8 -9 -9 -9 -9 -9 -9 -10 -10 -11 -11 -11 -11 -11 -11 -10 -10 -10 -10 -10 -9 -9 -10 -10 -10 -10 -10 -11 -11 -12 -12 -11 -12 -12 -13
-6 -7 -7 -7 -7 -8 -8 -9 -9 -9 -10 -10 -10 -10 -11 -12 -11 -10 -9 -10 -12 -12 -12 -13 -12 -11 -12 -11 -11 -11 -11 -11 -11 -12 -12 -12 -12 -13 -13 -13 -13 -13 -14 -14
-6 -7 -7 -8 -8 -8 -9 -9 -9 -10 -10 -10 -10 -10 -10 -11 -12 -13 -13 -12 -13 -13 -13 -13 -14 -15 -14 -13 -13 -13 -13 -13 -13 -13 -14 -14 -14 -14 -15 -15 -15 -15 -16 -16
-7 -7 -8 -8 -8 -9 -9 -10 -10 -11 -11 -11 -12 -12 -12 -12 -11 -11 -12 -14 -14 -15 -15 -16 -16 -16 -15 -15 -15 -15 -15 -15 -15 -16 -16 -16 -16 -16 -17 -17 -17 -17 -18 -18
-7 -7 -8 -8 -9 -9 -9 -10 -10 -11 -11 -12 -12 -12 -11 -12 -12 -13 -14 -16 -17 -17 -17 -17 -17 -17 -16 -16 -16 -16 -16 -16 -16 -17 -17 -18 -17 -18 -18 -18 -19 -18 -19 -20
-8 -8 -8 -8 -8 -9 -10 -10 -10 -11 -11 -12 -12 -13 -13 -14 -14 -15 -15 -16 -17 -16 -17 -18 -18 -18 -17 -17 -17 -17 -17 -18 -18 -18 -18 -18 -18 -19 -19 -19 -20 -20 -21 -21
-9 -10 -10 -10 -10 -9 -9 -9 -10 -10 -11 -12 -13 -14 -15 -15 -16 -16 -17 -17 -18 -18 -18 -18 -19 -18 -18 -18 -18 -18 -18 -18 -18 -19 -19 -19 -19 -20 -20 -21 -21 -21 -22 -22
-10 -9 -10 -10 -11 -12 -11 -11 -11 -12 -13 -13 -14 -15 -15 -16 -16 -16 -17 -17 -17 -18 -18 -18 -18 -19 -19 -18 -18 -19 -19 -19 -20 -20 -20 -20 -21 -21 -22 -22 -22 -23 -23 -24

GFSNGP_925_temp_075.txt.gz
Temp
19 18 19 20 21 22 22 22 21 22 23 24 25 25 26 26 26 26 26 26 27 28 29 29 27 25 24 23 22 21 20 19 19 18 18 17 17 17 17 16 16 16 16 16
16 19 19 18 20 20 21 22 22 22 23 25 26 25 25 25 25 24 24 25 26 27 27 28 28 27 25 24 23 22 21 20 19 19 18 18 17 17 17 16 16 17 16 17
16 19 18 17 19 20 21 21 22 21 23 24 24 24 23 23 23 22 22 23 23 23 24 26 27 27 27 25 24 22 21 20 20 19 19 18 17 17 17 16 16 16 16 16
16 16 15 20 21 21 21 22 23 23 23 22 22 23 23 24 22 21 21 21 22 22 23 23 24 24 25 25 25 23 22 21 20 20 19 19 18 18 17 17 16 16 16 16
15 16 18 20 21 20 20 21 22 22 22 22 22 22 23 23 22 21 21 21 21 21 20 20 22 23 23 24 25 25 23 21 21 20 20 19 19 18 18 17 16 16 16 15
15 14 15 19 20 21 21 20 21 21 20 20 20 20 22 22 21 21 22 21 20 19 19 18 17 18 20 22 23 24 24 22 21 21 20 20 19 18 17 17 16 16 14 13
14 14 17 20 21 20 18 17 18 19 19 19 19 20 20 21 21 21 21 20 18 17 13 11 10 12 16 19 21 22 22 23 22 21 20 19 19 18 17 13 12 11 10 9
13 12 14 20 20 18 17 18 18 18 18 17 18 19 20 21 21 20 19 18 15 13 10 7 5 7 12 15 13 15 15 18 19 19 18 19 17 12 9 10 7 4 2 1
16 16 19 19 18 17 17 17 17 17 17 17 16 17 18 19 19 17 16 15 13 10 6 4 3 3 4 5 6 8 11 9 8 8 8 8 8 8 6 4 2 0 -0 -2
12 17 14 18 19 18 16 16 16 15 15 15 14 15 16 16 16 14 13 11 9 7 4 2 1 1 1 2 4 4 4 3 3 3 3 3 3 2 2 2 0 -1 -2 -3
17 18 19 19 17 15 14 15 14 14 13 13 12 13 13 14 11 11 9 6 4 3 1 0 0 -1 -0 0 2 1 0 0 -1 -1 -1 -1 -1 -0 -0 -0 -0 -1 -2 -3
15 14 15 16 14 13 13 12 12 11 11 10 10 9 10 10 7 6 5 3 2 0 -0 -1 -1 -2 -2 -1 -0 1 -1 -1 -2 -2 -3 -3 -3 -4 -3 -3 -2 -3 -3 -4
12 11 12 13 11 8 8 8 9 10 9 7 7 4 3 3 1 2 1 0 -2 -2 -3 -4 -4 -4 -3 -2 -2 -2 -2 -2 -3 -3 -3 -4 -4 -4 -4 -5 -5 -5 -5 -5
9 9 12 9 7 6 6 6 6 6 4 3 1 -0 -1 -2 -3 -4 -4 -4 -4 -4 -5 -5 -5 -5 -5 -4 -4 -3 -4 -4 -4 -4 -5 -5 -5 -5 -5 -5 -5 -5 -5 -6
7 8 7 5 4 3 3 4 4 2 0 -1 -3 -3 -4 -5 -5 -6 -6 -6 -6 -6 -6 -6 -5 -5 -5 -5 -5 -5 -4 -4 -4 -4 -5 -5 -5 -5 -5 -6 -6 -6 -7 -7
5 7 6 4 4 3 2 2 1 -0 -1 -2 -3 -4 -5 -6 -6 -7 -7 -8 -7 -7 -7 -7 -7 -6 -5 -4 -5 -5 -5 -5 -4 -4 -4 -4 -5 -5 -5 -6 -6 -6 -6 -6
3 4 3 3 2 1 -1 -1 -1 -3 -3 -4 -5 -6 -6 -7 -7 -7 -7 -8 -8 -8 -8 -7 -7 -7 -6 -6 -5 -5 -5 -5 -5 -6 -6 -6 -6 -7 -7 -7 -8 -8 -8 -8
1 0 0 0 0 -0 -2 -2 -4 -4 -5 -6 -7 -7 -7 -7 -7 -7 -8 -8 -8 -8 -8 -8 -8 -8 -7 -7 -7 -7 -7 -7 -7 -7 -7 -7 -7 -7 -8 -8 -9 -9 -10 -10
-1 -1 -1 -2 -2 -3 -4 -5 -6 -6 -7 -7 -7 -8 -8 -9 -9 -9 -10 -9 -9 -9 -10 -9 -9 -8 -8 -8 -7 -7 -7 -7 -8 -8 -9 -9 -9 -9 -9 -9 -10 -10 -10 -11
-3 -3 -4 -5 -5 -6 -6 -7 -7 -7 -8 -8 -8 -8 -9 -9 -9 -9 -10 -11 -11 -11 -11 -11 -9 -9 -9 -9 -8 -8 -8 -8 -9 -9 -9 -9 -9 -10 -10 -10 -10 -11 -11 -12
-5 -6 -6 -6 -7 -7 -8 -8 -8 -8 -9 -9 -10 -10 -11 -11 -12 -9 -9 -10 -12 -11 -12 -12 -12 -10 -10 -10 -10 -10 -10 -10 -10 -10 -10 -10 -11 -11 -11 -11 -11 -12 -12 -13
-6 -6 -7 -7 -7 -8 -8 -8 -9 -9 -9 -9 -9 -9 -9 -9 -10 -12 -12 -11 -12 -13 -13 -13 -13 -14 -12 -11 -12 -12 -12 -12 -12 -12 -12 -12 -12 -12 -13 -13 -13 -13 -14 -14
-6 -7 -7 -7 -8 -8 -9 -10 -10 -10 -10 -10 -10 -10 -10 -11 -11 -11 -12 -14 -14 -15 -14 -15 -15 -14 -13 -13 -13 -13 -13 -13 -13 -14 -14 -14 -14 -14 -15 -15 -15 -15 -16 -16
-6 -7 -7 -7 -8 -8 -8 -9 -9 -10 -10 -11 -11 -11 -9 -10 -11 -12 -13 -14 -15 -15 -17 -16 -16 -15 -14 -14 -14 -14 -14 -14 -14 -14 -15 -15 -15 -15 -16 -16 -16 -16 -17 -17
-7 -7 -7 -7 -7 -8 -8 -8 -8 -9 -9 -10 -11 -12 -12 -13 -13 -14 -14 -15 -16 -14 -15 -17 -16 -16 -15 -15 -15 -15 -15 -16 -16 -15 -16 -16 -16 -16 -16 -17 -17 -18 -18 -18
-7 -8 -8 -8 -7 -7 -7 -7 -7 -8 -9 -10 -11 -12 -13 -13 -14 -14 -14 -15 -15 -15 -15 -16 -17 -15 -15 -16 -16 -16 -16 -16 -16 -17 -17 -17 -17 -17 -18 -19 -19 -19 -19 -20
-8 -8 -7 -8 -9 -9 -9 -8 -9 -9 -10 -11 -12 -12 -13 -13 -14 -14 -14 -14 -15 -15 -15 -15 -16 -17 -17 -16 -16 -16 -16 -16 -18 -19 -18 -18 -18 -18 -19 -20 -20 -20 -21 -21